FW0579 Weather Reports


time (UTC)temp
C
wind
direction
speed
KPH
gust
KPH
rain 1hr
cm
rain 24hr
cm
rain mn
cm
humidity
%
barometer
mb
20260506124509 13 360 0.0 0.0 0.00 0.00 0.00 86 1019.1
20260506123012 13 360 0.0 0.0 0.00 0.00 0.00 87 1019.2
20260506121512 13 360 0.0 0.0 0.00 0.00 0.00 86 1019.1
20260506120015 12 360 0.0 4.8 0.00 0.00 0.00 86 1018.9
20260506114506 12 360 0.0 3.2 0.00 0.00 0.00 87 1019.0
20260506113006 13 360 0.0 0.0 0.00 0.00 0.00 87 1019.0
20260506111504 13 360 0.0 0.0 0.00 0.08 0.00 87 1018.9
20260506110003 13 360 0.0 0.0 0.00 0.08 0.00 87 1018.7
20260506104502 13 360 0.0 1.6 0.00 0.08 0.00 87 1018.4
20260506103005 13 360 0.0 0.0 0.00 0.08 0.00 87 1018.4
20260506101504 13 360 0.0 0.0 0.00 0.15 0.00 87 1018.3
20260506100113 13 360 0.0 0.0 0.00 0.15 0.00 87 1018.2
20260506094604 13 360 0.0 0.0 0.00 0.15 0.00 87 1018.2
20260506093101 13 360 0.0 8.0 0.00 0.15 0.00 87 1018.1
20260506091558 13 360 0.0 0.0 0.00 0.23 0.00 87 1018.3
20260506090104 12 360 0.0 0.0 0.00 0.23 0.00 87 1018.3
20260506084624 12 360 0.0 0.0 0.00 0.23 0.00 86 1018.3
20260506083055 12 360 0.0 3.2 0.00 0.23 0.00 86 1018.4
20260506081559 12 360 0.0 4.8 0.00 0.38 0.00 86 1018.6
20260506073051 12 360 0.0 3.2 0.00 0.38 0.00 84 1018.0
20260506071548 13 360 1.6 4.8 0.00 0.43 0.00 83 1017.9
20260506061539 13 284 4.8 11.3 0.00 0.43 0.00 81 1017.3
20260506044529 15 260 4.8 9.7 0.00 0.43 0.00 80 1016.3
20260506043025 15 225 3.2 6.4 0.00 0.43 0.00 80 1016.2
20260506041523 15 223 4.8 6.4 0.00 0.43 0.43 80 1016.0
20260506040029 15 223 3.2 4.8 0.00 0.43 0.43 80 1015.9
20260506034523 16 223 3.2 6.4 0.00 0.43 0.43 80 1015.7
20260506033020 16 223 0.0 0.0 0.00 0.43 0.43 80 1015.7
20260506031521 16 223 0.0 0.0 0.00 0.43 0.43 80 1015.6
20260506030021 16 223 0.0 0.0 0.00 0.43 0.43 79 1015.4
20260506024521 16 223 0.0 0.0 0.00 0.43 0.43 77 1015.2
20260506023035 16 223 0.0 3.2 0.00 0.43 0.43 76 1015.2
20260506021532 16 223 0.0 4.8 0.00 0.43 0.43 76 1015.1
20260506020024 17 222 3.2 6.4 0.00 0.43 0.43 75 1014.9
20260506014520 17 222 1.6 6.4 0.00 0.43 0.43 74 1014.9
20260506013026 17 222 4.8 11.3 0.00 0.43 0.43 72 1015.0
20260506011518 17 230 6.4 11.3 0.00 0.43 0.43 71 1014.9
20260506010018 17 227 6.4 9.7 0.00 0.43 0.43 71 1014.8
20260506004520 17 232 6.4 11.3 0.00 0.43 0.43 71 1014.8
20260506003016 18 221 4.8 12.9 0.00 0.43 0.43 71 1014.7
20260506001515 18 229 4.8 14.5 0.00 0.43 0.43 71 1014.7
20260506000021 18 227 1.6 9.7 0.00 0.43 0.43 72 1014.7
20260505234517 18 236 4.8 12.9 0.00 0.43 0.43 71 1014.5
20260505233014 18 360 6.4 14.5 0.00 0.43 0.43 72 1014.5
20260505231527 17 360 3.2 12.9 0.00 0.43 0.43 72 1014.4
20260505230010 17 360 4.8 9.7 0.00 0.43 0.43 73 1014.5
20260505224508 17 360 3.2 8.0 0.00 0.43 0.43 76 1014.5
20260505223003 16 360 4.8 9.7 0.00 0.43 0.43 76 1014.8
20260505221502 16 360 4.8 8.0 0.00 0.43 0.43 78 1014.9
20260505220005 16 231 3.2 8.0 0.00 0.43 0.43 79 1015.1
20260505214507 16 360 3.2 12.9 0.00 0.43 0.43 80 1015.1
20260505213014 15 360 0.0 8.0 0.00 0.43 0.43 80 1015.2
20260505211509 15 360 0.0 6.4 0.00 0.43 0.43 81 1015.4
20260505210001 15 227 6.4 12.9 0.00 0.43 0.43 80 1015.3
20260505204500 16 252 8.0 17.7 0.00 0.43 0.43 78 1015.4
20260505203122 16 221 4.8 12.9 0.00 0.43 0.43 79 1015.4
20260505201604 15 186 0.0 6.4 0.00 0.43 0.43 83 1015.4
20260505200056 15 100 0.0 3.2 0.00 0.43 0.43 83 1015.5
20260505194553 15 169 0.0 4.8 0.00 0.43 0.43 84 1015.6
20260505193051 15 211 0.0 3.2 0.00 0.43 0.43 84 1015.7
20260505191600 14 212 1.6 6.4 0.00 0.43 0.43 86 1015.6
20260505190047 14 211 0.0 3.2 0.00 0.43 0.43 87 1015.5
20260505184545 13 223 0.0 4.8 0.00 0.43 0.43 87 1015.4
20260505183044 13 222 1.6 4.8 0.00 0.43 0.43 87 1015.4
20260505181546 13 219 0.0 4.8 0.00 0.43 0.43 87 1015.2
20260505180049 13 221 1.6 9.7 0.00 0.43 0.43 88 1015.0
20260505174544 12 228 6.4 12.9 0.00 0.43 0.43 89 1014.9
20260505173040 12 218 4.8 9.7 0.00 0.43 0.43 89 1015.0
20260505171543 12 238 4.8 11.3 0.00 0.43 0.43 90 1014.9
20260505170052 12 186 0.0 0.0 0.00 0.43 0.43 91 1014.9
20260505164541 12 186 0.0 0.0 0.00 0.43 0.43 91 1014.9
20260505163037 12 186 0.0 6.4 0.00 0.43 0.43 91 1014.9
20260505161535 12 101 0.0 0.0 0.00 0.43 0.43 91 1014.8
20260505153036 12 109 1.6 6.4 0.00 0.43 0.43 91 1014.7
20260505151549 12 134 0.0 3.2 0.00 0.43 0.43 91 1014.5